Погода в Зикееве

Россия / Калужская область     53°44′00″N   34°52′05″E
темп.,
°C
ветер,
м/с
пор.,
м/с
влажн.,
%
обл.,
%
осадки,
мм/ч
давл.,
гПа
погр.,
м
20 сентября, пн
пн2000:00+7в4997100 0.1 1009462
03:00+7всв4998100 0.1 1009443
06:00+7всв4998100 0.0 1008407
09:00+8всв51197100 0.6 1007398
12:00+9всв51297100 3.3 1006509
15:00+9в41098100 5.0 1007602
18:00+9юв2594100 1.3 1008236
21:00+8вюв2696100 1.5 1009218
21 сентября, вт
вт2100:00+8всв3796100 0.1 1009269
03:00+8в3797100 1.2 1008396
06:00+8в3799100 1.5 1008439
09:00+7юв3698100 2.7 1009395
12:00+7ю3696100 0.4 1010479
15:00+7ю3593100 0.5 1010529
18:00+6ююв2494100 0.0 1011329
21:00+6ююв1295100 0.1 1012199
22 сентября, ср
ср2200:00+6в1195100 0.0 101242
03:00+6ссв1196100 0.0 101127
06:00+5с119681 0.0 101123
09:00+7ссз129392 0.0 1011194
12:00+9св128198 0.2 1011515
15:00+9ссв2286100 0.8 1012498
18:00+8с3593100 0.4 1013281
21:00+7с2496100 0.4 1013231
23 сентября, чт
чт2300:00+7ссв2496100 0.0 1013215
03:00+7ссв2396100 0.0 1013171
06:00+6св1295100 0.0 1013115
09:00+7всв2395100 0.4 1014210
12:00+7вюв1293100 0.5 1014166
15:00+8всв118495 0.9 1014363
18:00+8всв118899 0.6 101319
21:00+6ююз119391 0.9 101419
24 сентября, пт
пт2400:00+7ююз238693 0.1 101378
03:00+6ююз2494100 0.1 1013145
06:00+5ююз2695100 0.1 1012216
09:00+6ю3690100 0.1 1011628
12:00+7ю4881100 0.1 1010862
15:00+8ю5973100 0.2 10081111
18:00+7ю51088100 0.8 1007989
21:00+6ююв61395100 3.8 1006857